Back to catalog

COSMOS 252 DEB

AliveLEO
NORAD 3814·DEBRIS·🇷🇺 Russia

Launched Nov 1, 1968 from Baikonur Cosmodrome

Loading…

Next Passes (next 24 hours)

TLE

FreshSource: Space-Track

Epoch: Sep 14, 2026, 13:51 UTC

1 03814U 68097BC  26257.57769990  .00000468  00000-0  66991-3 0  9992
2 03814  62.2647 102.3163 0777066  47.4227 318.9712 12.79523312665890

Track COSMOS 252 DEB in real time with AllMySat

Download on the App Store